Weather History for KATY - November, 2012

Change the Weather History Date:

Sunday, November 4, 2012

  Actual Average Record
Temperature  
Mean Temperature 34 °F 36 °F  
Max Temperature 37 °F 46 °F 73 °F (1975)
Min Temperature 31 °F 27 °F -2 °F (1991)
Degree Days  
Heating Degree Days 31 28  
Month to date heating degree days 126 110  
Since 1 July heating degree days 1014 994  
Cooling Degree Days 0 0  
Month to date cooling degree days 0 0  
Year to date cooling degree days 788 515  
Moisture  
Dew Point 30 °F    
Average Humidity 83    
Maximum Humidity 96    
Minimum Humidity 70    
Precipitation  
Precipitation 0.06 in 0.03 in 0.39 in (1956)
Month to date precipitation 0.05 0.13  
Year to date precipitation 17.29 20.92  
Snow  
Snow 0.00 in - - ()
Month to date snowfall T  
Since 1 July snowfall 0.5  
Snow Depth 0.00 in    
Sea Level Pressure  
Sea Level Pressure 30.16 in    
Wind  
Wind Speed 3 mph (NNE)    
Max Wind Speed 9 mph    
Max Gust Speed 10 mph    
Visibility 6 miles    
Events Snow    
T = Trace of Precipitation, MM = Missing Value Source: NWS Daily Summary

Daily Weather History Graph

Daily Weather History Graph

Search for Another Location

Airport or City:

Trip Planner

Search our weather history database for the weather conditions in past years. The results will help you decide how hot, cold, wet, or windy it might be!

Date:

Astronomy

Nov. 04, 2012 Rise Set
Actual Time 7:11 AM CST 5:12 PM CST
Civil Twilight 6:40 AM CST 5:42 PM CST
Nautical Twilight 6:05 AM CST 6:17 PM CST
Astronomical Twilight 5:31 AM CST 6:51 PM CST
Moon 9:49 PM CST (11/4) 11:58 AM CST (11/4)
Length of Visible Light 11h 02m
Length of Day
10h 00m
Waning Gibbous, 72% of the Moon is Illuminated
Nov 4
Waning Gibbous
Nov 6
Last Quarter
Nov 13
New
Nov 20
First Quarter
Nov 28
Full

Hourly Weather History & Observations

Time (CST) Temp. Windchill Dew Point Humidity Pressure Visibility Wind Dir Wind Speed Gust Speed Precip Events Conditions
12:53 AM 32.0 °F - 28.9 °F 88% 30.23 in 10.0 mi Calm Calm - N/A   Overcast
1:53 AM 32.0 °F - 27.0 °F 82% 30.22 in 10.0 mi Calm Calm - N/A   Overcast
1:53 AM 32.0 °F 27.5 °F 28.0 °F 85% 30.23 in 10.0 mi NW 4.6 mph - N/A   Overcast
2:05 AM 32.0 °F 27.5 °F 28.4 °F 87% 30.17 in 10.0 mi NNW 4.6 mph - N/A   Overcast
2:53 AM 32.0 °F 28.7 °F 28.0 °F 85% 30.22 in 10.0 mi North 3.5 mph - N/A   Overcast
3:53 AM 32.0 °F 28.7 °F 28.0 °F 85% 30.22 in 9.0 mi NNW 3.5 mph - N/A   Overcast
4:53 AM 32.0 °F - 27.0 °F 82% 30.21 in 9.0 mi Calm Calm - N/A   Overcast
5:53 AM 30.9 °F - 27.0 °F 85% 30.21 in 9.0 mi Calm Calm - N/A   Overcast
6:02 AM 30.2 °F - 26.6 °F 86% 30.15 in 9.0 mi Calm Calm - N/A   Overcast
6:53 AM 32.0 °F - 28.0 °F 85% 30.20 in 9.0 mi Calm Calm - N/A   Overcast
7:53 AM 32.0 °F 26.4 °F 28.0 °F 85% 30.20 in 7.0 mi East 5.8 mph - N/A   Overcast
8:22 AM 32.0 °F 28.7 °F 28.4 °F 87% 30.15 in 8.0 mi East 3.5 mph - N/A   Overcast
8:53 AM 32.0 °F 26.4 °F 28.0 °F 85% 30.20 in 8.0 mi East 5.8 mph - N/A   Overcast
9:53 AM 33.1 °F - 28.0 °F 82% 30.19 in 10.0 mi Calm Calm - N/A   Overcast
10:53 AM 34.0 °F 29.8 °F 28.0 °F 79% 30.19 in 10.0 mi ESE 4.6 mph - N/A   Overcast
11:16 AM 35.6 °F - 28.4 °F 75% 30.12 in 10.0 mi Calm Calm - N/A   Overcast
11:53 AM 36.0 °F - 28.9 °F 76% 30.17 in 10.0 mi Calm Calm - N/A   Overcast
12:53 PM 37.0 °F - 28.9 °F 73% 30.16 in 10.0 mi Calm Calm - N/A   Overcast
1:53 PM 37.0 °F - 30.0 °F 76% 30.14 in 10.0 mi Calm Calm - N/A   Overcast
2:17 PM 37.4 °F 34.9 °F 30.2 °F 75% 30.08 in 7.0 mi East 3.5 mph - N/A   Overcast
2:53 PM 37.0 °F - 32.0 °F 82% 30.14 in 7.0 mi Calm Calm - N/A   Overcast
3:16 PM 35.6 °F 32.8 °F 32.0 °F 87% 30.09 in 6.0 mi NNE 3.5 mph - 0.01 in   Overcast
3:53 PM 36.0 °F 32.1 °F 33.1 °F 89% 30.15 in 5.0 mi NE 4.6 mph - 0.01 in   Overcast
4:01 PM 35.6 °F 31.7 °F 32.0 °F 87% 30.09 in 5.0 mi NE 4.6 mph - N/A   Overcast
4:26 PM 35.6 °F 32.8 °F 32.0 °F 87% 30.09 in 5.0 mi ENE 3.5 mph - N/A   Overcast
4:53 PM 35.1 °F 32.2 °F 32.0 °F 89% 30.15 in 3.0 mi NE 3.5 mph - 0.01 in   Overcast
5:05 PM 33.8 °F 29.6 °F 32.0 °F 93% 30.10 in 2.5 mi NE 4.6 mph - 0.00 in Snow Light Snow
5:29 PM 33.8 °F 30.8 °F 32.0 °F 93% 30.10 in 4.0 mi NNE 3.5 mph - 0.01 in   Overcast
5:53 PM 34.0 °F 31.0 °F 32.0 °F 92% 30.17 in 3.0 mi NNE 3.5 mph - 0.01 in Snow Light Snow
6:22 PM 33.8 °F 30.8 °F 32.0 °F 93% 30.11 in 2.5 mi NE 3.5 mph - 0.01 in Snow Light Snow
6:51 PM 33.8 °F 30.8 °F 32.0 °F 93% 30.12 in 2.5 mi NNE 3.5 mph - 0.02 in   Overcast
6:53 PM 33.1 °F 30.0 °F 32.0 °F 96% 30.18 in 2.5 mi NNE 3.5 mph - 0.02 in   Overcast
7:21 PM 33.8 °F 29.6 °F 30.2 °F 87% 30.12 in 1.8 mi North 4.6 mph - 0.00 in Snow Light Snow
7:38 PM 32.0 °F 28.7 °F 30.2 °F 93% 30.12 in 1.2 mi North 3.5 mph - 0.01 in Snow Light Snow
7:53 PM 32.0 °F 27.5 °F 30.9 °F 96% 30.18 in 1.8 mi North 4.6 mph - 0.01 in   Overcast
8:04 PM 32.0 °F 27.5 °F 30.2 °F 93% 30.12 in 2.0 mi NNW 4.6 mph - N/A   Overcast
8:38 PM 33.8 °F 29.6 °F 32.0 °F 93% 30.13 in 2.5 mi North 4.6 mph - N/A   Overcast
8:43 PM 33.8 °F 28.6 °F 32.0 °F 93% 30.13 in 3.0 mi North 5.8 mph - N/A   Overcast
8:53 PM 33.1 °F 26.9 °F 32.0 °F 96% 30.19 in 3.0 mi North 6.9 mph - N/A   Overcast
9:49 PM 33.8 °F 27.0 °F 32.0 °F 93% 30.14 in 4.0 mi North 8.1 mph - N/A   Overcast
9:53 PM 34.0 °F 28.0 °F 32.0 °F 92% 30.19 in 4.0 mi North 6.9 mph - N/A   Overcast
10:15 PM 33.8 °F 28.6 °F 33.8 °F 100% 30.14 in 2.5 mi North 5.8 mph - N/A   Overcast
10:27 PM 33.8 °F 28.6 °F 33.8 °F 100% 30.14 in 2.0 mi North 5.8 mph - N/A   Overcast
10:37 PM 35.6 °F 29.9 °F 33.8 °F 93% 30.14 in 1.8 mi North 6.9 mph - N/A   Overcast
10:46 PM 35.6 °F 29.9 °F 33.8 °F 93% 30.14 in 2.0 mi North 6.9 mph - N/A   Overcast
10:53 PM 35.1 °F 29.3 °F 34.0 °F 96% 30.19 in 2.0 mi North 6.9 mph - N/A   Overcast